DW2685 Weather Reports


time (UTC)temp
C
wind
direction
speed
KPH
gust
KPH
rain 1hr
cm
rain 24hr
cm
rain mn
cm
humidity
%
barometer
mb
20260505102030 8 285 0.0 0.0 0.00 0.00 0.00 90 1017.1
20260505101526 9 285 0.0 0.0 0.00 0.00 0.00 90 1017.1
20260505101026 9 285 0.0 0.0 0.00 0.00 0.00 91 1017.0
20260505100526 9 285 0.0 0.0 0.00 0.00 0.00 90 1017.0
20260505100026 9 285 0.0 0.0 0.00 0.00 0.00 90 1016.9
20260505095523 9 285 0.0 0.0 0.00 0.00 0.00 90 1016.7
20260505095023 9 285 0.0 0.0 0.00 0.00 0.00 89 1016.7
20260505094523 9 285 0.0 0.0 0.00 0.00 0.00 89 1016.7
20260505094022 9 285 0.0 0.0 0.00 0.00 0.00 89 1016.7
20260505093522 10 285 0.0 0.0 0.00 0.00 0.00 89 1016.6
20260505093021 10 285 0.0 0.0 0.00 0.00 0.00 89 1016.5
20260505092519 10 285 0.0 0.0 0.00 0.00 0.00 89 1016.4
20260505092020 10 285 0.0 0.0 0.00 0.00 0.00 89 1016.5
20260505091519 10 285 0.0 0.0 0.00 0.00 0.00 89 1016.5
20260505091018 10 285 0.0 0.0 0.00 0.00 0.00 89 1016.5
20260505090518 10 285 0.0 0.0 0.00 0.00 0.00 88 1016.4
20260505090018 10 285 0.0 0.0 0.00 0.00 0.00 88 1016.4
20260505085517 10 285 0.0 0.0 0.00 0.00 0.00 88 1016.5
20260505085016 10 285 0.0 0.0 0.00 0.00 0.00 88 1016.4
20260505084516 10 285 0.0 0.0 0.00 0.00 0.00 87 1016.4
20260505084014 10 285 0.0 0.0 0.00 0.00 0.00 87 1016.5
20260505083517 10 285 0.0 0.0 0.00 0.00 0.00 87 1016.4
20260505083013 11 285 0.0 0.0 0.00 0.00 0.00 87 1016.3
20260505082515 11 285 0.0 0.0 0.00 0.00 0.00 87 1016.4
20260505082012 11 285 0.0 0.0 0.00 0.00 0.00 86 1016.4
20260505081518 11 285 0.0 0.0 0.00 0.00 0.00 86 1016.4
20260505081012 11 285 0.0 0.0 0.00 0.00 0.00 85 1016.4
20260505080517 11 285 0.0 0.0 0.00 0.00 0.00 85 1016.4
20260505080015 11 285 0.0 0.0 0.00 0.00 0.00 85 1016.4
20260505075510 11 285 0.0 0.0 0.00 0.00 0.00 85 1016.4
20260505075009 11 285 0.0 0.0 0.00 0.00 0.00 85 1016.3
20260505074509 11 285 0.0 0.0 0.00 0.00 0.00 84 1016.3
20260505074009 11 285 0.0 0.0 0.00 0.00 0.00 84 1016.3
20260505073511 11 285 0.0 0.0 0.00 0.00 0.00 84 1016.4
20260505073007 11 285 0.0 0.0 0.00 0.00 0.00 84 1016.3
20260505072507 11 285 0.0 0.0 0.00 0.00 0.00 85 1016.3
20260505072007 12 285 0.0 0.0 0.00 0.00 0.00 85 1016.3
20260505071506 12 285 0.0 0.0 0.00 0.00 0.00 85 1016.3
20260505071005 12 285 0.0 0.0 0.00 0.00 0.00 84 1016.3
20260505070505 12 285 0.0 0.0 0.00 0.00 0.00 84 1016.2
20260505070006 12 285 0.0 3.2 0.00 0.00 0.00 83 1016.2
20260505065505 12 285 0.0 3.2 0.00 0.00 0.00 83 1016.2
20260505065004 12 285 0.0 0.0 0.00 0.00 0.00 84 1016.2
20260505064504 12 285 0.0 0.0 0.00 0.00 0.00 83 1016.2
20260505064007 12 285 0.0 0.0 0.00 0.00 0.00 83 1016.2
20260505063503 12 285 0.0 0.0 0.00 0.00 0.00 83 1016.3
20260505063003 12 285 0.0 0.0 0.00 0.00 0.00 83 1016.4
20260505062503 12 285 0.0 0.0 0.00 0.00 0.00 83 1016.4
20260505062003 12 285 0.0 1.6 0.00 0.00 0.00 83 1016.4
20260505061502 12 285 0.0 1.6 0.00 0.00 0.00 84 1016.4
20260505061001 12 285 0.0 1.6 0.00 0.00 0.00 83 1016.4
20260505060501 12 285 0.0 0.0 0.00 0.00 0.00 83 1016.5
20260505060002 12 285 0.0 0.0 0.00 0.00 0.00 81 1016.5
20260505055600 12 284 0.0 0.0 0.00 0.00 0.00 81 1016.5
20260505055106 12 284 0.0 0.0 0.00 0.00 0.00 81 1016.5
20260505054604 12 284 0.0 0.0 0.00 0.00 0.00 81 1016.5
20260505054100 12 284 0.0 0.0 0.00 0.00 0.00 81 1016.5
20260505053559 12 284 0.0 0.0 0.00 0.00 0.00 80 1016.5
20260505053059 12 284 0.0 0.0 0.00 0.00 0.00 80 1016.5
20260505052558 12 284 0.0 0.0 0.00 0.00 0.00 79 1016.5
20260505052058 13 284 0.0 0.0 0.00 0.00 0.00 78 1016.5
20260505051558 13 284 0.0 0.0 0.00 0.00 0.00 77 1016.6
20260505051058 13 284 0.0 0.0 0.00 0.00 0.00 77 1016.5
20260505050558 13 284 0.0 0.0 0.00 0.00 0.00 76 1016.6
20260505041556 12 251 0.0 3.2 0.00 0.00 0.00 79 1016.7
20260505041049 12 309 0.0 1.6 0.00 0.00 0.00 79 1016.8
20260505040548 12 309 0.0 3.2 0.00 0.00 0.00 80 1016.8
20260505040056 12 244 0.0 3.2 0.00 0.00 0.00 80 1016.8
20260505035546 12 244 0.0 3.2 0.00 0.00 0.00 80 1016.8
20260505035046 12 243 0.0 3.2 0.00 0.00 0.00 80 1016.8
20260505034606 12 286 0.0 0.0 0.00 0.00 0.00 80 1016.8
20260505034046 12 286 0.0 0.0 0.00 0.00 0.00 80 1016.7
20260505033546 12 286 0.0 0.0 0.00 0.00 0.00 79 1016.8
20260505033045 12 286 0.0 0.0 0.00 0.00 0.00 79 1016.8
20260505032545 12 285 0.0 0.0 0.00 0.00 0.00 78 1016.7
20260505032045 12 286 0.0 0.0 0.00 0.00 0.00 76 1016.7
20260505031546 12 286 0.0 0.0 0.00 0.00 0.00 77 1016.7
20260505031045 12 285 0.0 0.0 0.00 0.00 0.00 76 1016.6
20260505030550 12 286 0.0 0.0 0.00 0.00 0.00 76 1016.7
20260505030049 12 285 0.0 0.0 0.00 0.00 0.00 75 1016.7
20260505025545 12 286 0.0 0.0 0.00 0.00 0.00 75 1016.7
20260505025045 13 286 0.0 0.0 0.00 0.00 0.00 75 1016.7
20260505024545 13 286 0.0 0.0 0.00 0.00 0.00 73 1016.6
20260505024044 13 286 0.0 0.0 0.00 0.00 0.00 73 1016.6
20260505023544 13 286 0.0 0.0 0.00 0.00 0.00 73 1016.6
20260505023045 13 286 0.0 0.0 0.00 0.00 0.00 71 1016.6
20260505022543 13 286 0.0 0.0 0.00 0.00 0.00 71 1016.5
20260505022043 13 286 0.0 0.0 0.00 0.00 0.00 70 1016.6
20260505021543 13 286 0.0 0.0 0.00 0.00 0.00 69 1016.4
20260505021042 14 286 0.0 0.0 0.00 0.00 0.00 69 1016.3
20260505020542 14 286 0.0 0.0 0.00 0.00 0.00 70 1016.2
20260505020054 14 286 0.0 0.0 0.00 0.00 0.00 70 1016.3
20260505015542 14 286 0.0 0.0 0.00 0.00 0.00 69 1016.3
20260505015042 15 286 0.0 0.0 0.00 0.00 0.00 69 1016.1
20260505014543 15 286 0.0 0.0 0.00 0.00 0.00 66 1016.1
20260505014041 15 286 0.0 0.0 0.00 0.00 0.00 66 1016.0
20260505013544 15 285 0.0 0.0 0.00 0.00 0.00 66 1016.0
20260505013042 15 286 0.0 0.0 0.00 0.00 0.00 63 1015.9
20260505012544 16 286 0.0 0.0 0.00 0.00 0.00 63 1015.8
20260505012042 16 286 0.0 0.0 0.00 0.00 0.00 59 1015.7
20260505011540 16 286 0.0 0.0 0.00 0.00 0.00 60 1015.6
20260505011043 16 285 0.0 0.0 0.00 0.00 0.00 60 1015.6
20260505010539 17 286 0.0 0.0 0.00 0.00 0.00 60 1015.6
20260505010050 17 286 0.0 0.0 0.00 0.00 0.00 56 1015.4
20260505005539 17 286 0.0 0.0 0.00 0.00 0.00 55 1015.4
20260505005040 17 286 0.0 0.0 0.00 0.00 0.00 55 1015.4
20260505004557 18 286 0.0 0.0 0.00 0.00 0.00 54 1015.4
20260505004041 18 286 0.0 0.0 0.00 0.00 0.00 54 1015.3
20260505003539 18 286 0.0 0.0 0.00 0.00 0.00 53 1015.4
20260505003039 18 286 0.0 0.0 0.00 0.00 0.00 54 1015.2
20260505002538 19 286 0.0 0.0 0.00 0.00 0.00 55 1015.2
20260505002042 20 286 0.0 0.0 0.00 0.00 0.00 49 1015.1
20260505001541 20 286 0.0 0.0 0.00 0.00 0.00 49 1015.1
20260505001039 20 286 0.0 0.0 0.00 0.00 0.00 47 1015.2
20260505000537 20 286 0.0 0.0 0.00 0.00 0.00 46 1015.2
20260505000038 20 286 0.0 0.0 0.00 0.00 0.00 48 1015.1
20260504235537 21 286 0.0 0.0 0.00 0.00 0.00 48 1015.1
20260504235037 21 286 0.0 0.0 0.00 0.00 0.00 46 1015.0
20260504234537 21 285 0.0 1.6 0.00 0.00 0.00 46 1015.0
20260504234036 22 286 0.0 1.6 0.00 0.00 0.00 45 1014.9
20260504233536 22 285 0.0 6.4 0.00 0.00 0.00 47 1014.9
20260504233036 22 291 0.0 6.4 0.00 0.00 0.00 43 1014.8
20260504232536 22 291 0.0 3.2 0.00 0.00 0.00 41 1014.8
20260504232035 22 288 0.0 4.8 0.00 0.00 0.00 42 1014.7
20260504231540 23 288 0.0 4.8 0.00 0.00 0.00 40 1014.7
20260504231036 23 84 0.0 4.8 0.00 0.00 0.00 44 1014.6
20260504230534 23 85 1.6 6.4 0.00 0.00 0.00 37 1014.7
20260504230036 23 252 0.0 6.4 0.00 0.00 0.00 41 1014.6
20260504225534 23 315 0.0 12.9 0.00 0.00 0.00 39 1014.6
20260504225033 23 257 1.6 12.9 0.00 0.00 0.00 38 1014.6
20260504224539 23 288 0.0 11.3 0.00 0.00 0.00 40 1014.6
20260504224037 23 262 1.6 11.3 0.00 0.00 0.00 37 1014.6
20260504223533 23 355 0.0 4.8 0.00 0.00 0.00 37 1014.7
20260504223032 24 290 1.6 9.7 0.00 0.00 0.00 31 1014.6
20260504222532 24 252 1.6 9.7 0.00 0.00 0.00 34 1014.6
20260504222035 24 290 0.0 4.8 0.00 0.00 0.00 35 1014.6
20260504221538 24 311 0.0 4.8 0.00 0.00 0.00 35 1014.6
20260504221031 25 326 1.6 12.9 0.00 0.00 0.00 32 1014.5
20260504220531 25 262 3.2 12.9 0.00 0.00 0.00 32 1014.6
20260504220031 25 322 0.0 16.1 0.00 0.00 0.00 35 1014.6
20260504215531 25 271 4.8 16.1 0.00 0.00 0.00 33 1014.6
20260504215031 25 271 1.6 14.5 0.00 0.00 0.00 33 1014.5
20260504214530 26 250 1.6 4.8 0.00 0.00 0.00 35 1014.6
20260504214029 26 298 1.6 14.5 0.00 0.00 0.00 34 1014.6
20260504213529 26 137 1.6 14.5 0.00 0.00 0.00 33 1014.5
20260504213037 26 331 0.0 8.0 0.00 0.00 0.00 29 1014.5
20260504212528 26 242 3.2 9.7 0.00 0.00 0.00 32 1014.6
20260504212027 26 99 0.0 14.5 0.00 0.00 0.00 32 1014.6
20260504211533 26 270 1.6 12.9 0.00 0.00 0.00 28 1014.6
20260504211026 26 83 3.2 12.9 0.00 0.00 0.00 32 1014.6
20260504210526 26 265 1.6 12.9 0.00 0.00 0.00 30 1014.7
20260504210026 27 253 3.2 12.9 0.00 0.00 0.00 27 1014.7
20260504205526 27 240 0.0 6.4 0.00 0.00 0.00 35 1014.8
20260504205029 27 315 1.6 14.5 0.00 0.00 0.00 27 1014.9
20260504204523 27 323 3.2 14.5 0.00 0.00 0.00 29 1014.9
20260504204023 27 237 1.6 9.7 0.00 0.00 0.00 28 1015.0
20260504203522 27 273 1.6 9.7 0.00 0.00 0.00 33 1015.0
20260504203021 27 214 1.6 8.0 0.00 0.00 0.00 34 1015.1
20260504202521 27 325 3.2 8.0 0.00 0.00 0.00 28 1015.2
20260504202019 26 311 1.6 8.0 0.00 0.00 0.00 31 1015.2
20260504201519 26 250 1.6 19.3 0.00 0.00 0.00 31 1015.2
20260504201017 26 277 4.8 19.3 0.00 0.00 0.00 31 1015.2
20260504200517 26 85 0.0 12.9 0.00 0.00 0.00 35 1015.2
20260504200017 26 283 3.2 12.9 0.00 0.00 0.00 31 1015.2
20260504195516 26 261 3.2 12.9 0.00 0.00 0.00 31 1015.2
20260504195015 26 237 3.2 11.3 0.00 0.00 0.00 34 1015.2
20260504194518 26 266 1.6 8.0 0.00 0.00 0.00 36 1015.3
20260504194013 26 229 3.2 12.9 0.00 0.00 0.00 31 1015.9
20260504193513 26 215 4.8 12.9 0.00 0.00 0.00 32 1015.4
20260504193016 26 267 1.6 12.9 0.00 0.00 0.00 35 1015.5
20260504192510 26 269 4.8 12.9 0.00 0.00 0.00 36 1015.6
20260504192009 26 146 0.0 6.4 0.00 0.00 0.00 36 1015.7
20260504191509 26 274 3.2 6.4 0.00 0.00 0.00 33 1015.7
20260504191009 26 247 1.6 6.4 0.00 0.00 0.00 36 1015.8
20260504190509 25 303 3.2 6.4 0.00 0.00 0.00 34 1015.9
20260504190007 25 238 0.0 11.3 0.00 0.00 0.00 37 1016.0
20260504185505 25 218 1.6 11.3 0.00 0.00 0.00 37 1016.1
20260504185007 25 217 3.2 8.0 0.00 0.00 0.00 36 1016.1
20260504184515 25 9 0.0 12.9 0.00 0.00 0.00 35 1016.2
20260504184008 25 79 1.6 4.8 0.00 0.00 0.00 38 1016.3
20260504183503 25 80 0.0 6.4 0.00 0.00 0.00 34 1016.5
20260504183003 25 257 1.6 9.7 0.00 0.00 0.00 36 1016.4
20260504182505 25 265 3.2 9.7 0.00 0.00 0.00 35 1016.7
20260504182002 25 34 1.6 6.4 0.00 0.00 0.00 38 1016.7
20260504181501 25 30 1.6 12.9 0.00 0.00 0.00 37 1016.7
20260504181002 25 260 4.8 12.9 0.00 0.00 0.00 38 1016.8
20260504180501 25 257 1.6 6.4 0.00 0.00 0.00 40 1016.7
20260504180101 25 12 1.6 9.7 0.00 0.00 0.00 36 1016.7
20260504175600 25 267 3.2 9.7 0.00 0.00 0.00 33 1016.7
20260504175058 25 16 0.0 6.4 0.00 0.00 0.00 46 1016.8
20260504174558 24 131 1.6 4.8 0.00 0.00 0.00 40 1016.9
20260504174057 24 198 1.6 6.4 0.00 0.00 0.00 40 1016.8
20260504173558 23 234 0.0 8.0 0.00 0.00 0.00 37 1016.8
20260504173054 23 241 3.2 11.3 0.00 0.00 0.00 39 1016.8
20260504172553 23 274 3.2 6.4 0.00 0.00 0.00 44 1016.9
20260504172059 23 333 1.6 6.4 0.00 0.00 0.00 40 1017.0
20260504171553 23 47 3.2 6.4 0.00 0.00 0.00 39 1016.9
20260504171053 22 27 1.6 12.9 0.00 0.00 0.00 43 1017.0
20260504170551 22 279 1.6 12.9 0.00 0.00 0.00 38 1017.2
20260504151032 21 300 3.2 11.3 0.00 0.00 0.00 49 1018.4
20260504150533 21 278 0.0 8.0 0.00 0.00 0.00 54 1018.5
20260504141020 17 236 0.0 4.8 0.00 0.00 0.00 63 1018.8
20260504140513 17 249 0.0 4.8 0.00 0.00 0.00 65 1018.8
20260504130556 10 215 0.0 3.2 0.00 0.00 0.00 93 1018.6
20260504110542 5 223 0.0 0.0 0.00 0.00 0.00 94 1018.3